{"data":{"norad_id":62737,"epoch":"2026-05-24T22:53:04.267968Z","epoch_age_seconds":76386,"freshness":"FRESH","line1":"1 62737U 25014C   26144.95352162  .00010601  00000+0  39436-3 0  9992","line2":"2 62737  43.0023  86.9227 0001414 276.9063  83.1627 15.27566521 74880","mean_motion":15.27566521,"eccentricity":0.0001414,"inclination_deg":43.0023,"raan_deg":86.9227,"arg_perigee_deg":276.9063,"mean_anomaly_deg":83.1627,"bstar":0.00039436,"rev_number":7488,"period_min":94.267580508201,"perigee_km":482.11927989042,"apogee_km":484.05963473254,"semimajor_km":6861.2264573115,"source":"CELESTRAK","updated_at":"2026-05-25T13:38:19.738274Z"}}